Location: Waco, TX
(31.5480°N, 97.1670°W)
Time: 00:54:10
(UTC-06:00)

ISS - Pass Details

Date: 22 January 2018
Orbit: 402 x 407 km, 51.6° (Epoch: 21 January)

Event Time Altitude Azimuth Distance (km) Brightness Sun altitude
Rises 03:13:44 0° 327° (NNW) 2,318 - -53.6°
Reaches altitude 10° 03:16:05 10° 341° (NNW) 1,458 - -53.1°
Maximum altitude 03:18:48 24° 38° (NE) 881 - -52.6°
Drops below altitude 10° 03:21:32 10° 95° (E) 1,454 - -52.0°
Sets 03:23:52 0° 110° (ESE) 2,312 - -51.5°
